Time,TemperatureF,DewpointF,PressureIn,WindDirection,WindDirectionDegrees,WindSpeedMPH,WindSpeedGustMPH,Humidity,HourlyPrecipIn,Conditions,Clouds,dailyrainin,SoftwareType,DateUTC
2013-06-11 00:03:00,82.0,78.0,30.09,East,91,0.0,3.0,87,0.00,,,0.00,,2013-06-11 04:03:00,
2013-06-11 00:12:00,82.0,78.0,30.09,ESE,108,1.0,6.0,87,0.00,,,0.00,,2013-06-11 04:12:00,
2013-06-11 00:23:00,82.0,78.0,30.09,ESE,108,1.0,6.0,87,0.00,,,0.00,,2013-06-11 04:23:00,
2013-06-11 00:33:00,82.0,78.0,30.09,East,88,1.0,3.0,88,0.00,,,0.00,,2013-06-11 04:33:00,
2013-06-11 00:42:00,82.0,78.0,30.09,East,88,1.0,3.0,88,0.00,,,0.00,,2013-06-11 04:42:00,
2013-06-11 00:53:00,82.0,78.0,30.09,East,94,0.0,4.0,88,0.00,,,0.00,,2013-06-11 04:53:00,
2013-06-11 01:02:00,82.0,78.0,30.09,ESE,112,1.0,4.0,89,0.00,,,0.00,,2013-06-11 05:02:00,
2013-06-11 01:12:00,82.0,78.0,30.09,ESE,112,1.0,4.0,89,0.00,,,0.00,,2013-06-11 05:12:00,
2013-06-11 01:22:00,82.0,78.0,30.08,ENE,59,1.0,4.0,89,0.00,,,0.00,,2013-06-11 05:22:00,
2013-06-11 01:32:00,82.0,78.0,30.08,East,88,0.0,4.0,89,0.00,,,0.00,,2013-06-11 05:32:00,
2013-06-11 01:42:00,82.0,78.0,30.08,East,88,0.0,4.0,89,0.00,,,0.00,,2013-06-11 05:42:00,
2013-06-11 01:52:00,81.0,77.0,30.07,East,79,1.0,2.0,89,0.00,,,0.00,,2013-06-11 05:52:00,
2013-06-11 02:02:00,81.0,77.0,30.07,East,89,0.0,2.0,89,0.00,,,0.00,,2013-06-11 06:02:00,
2013-06-11 02:12:00,81.0,77.0,30.07,East,89,0.0,2.0,89,0.00,,,0.00,,2013-06-11 06:12:00,
2013-06-11 02:22:00,81.0,77.0,30.06,ESE,108,0.0,4.0,89,0.00,,,0.00,,2013-06-11 06:22:00,
2013-06-11 02:32:00,81.0,77.0,30.06,East,100,0.0,4.0,89,0.00,,,0.00,,2013-06-11 06:32:00,
2013-06-11 02:42:00,81.0,77.0,30.05,East,91,1.0,4.0,89,0.00,,,0.00,,2013-06-11 06:42:00,
2013-06-11 02:52:00,81.0,77.0,30.05,East,91,1.0,4.0,89,0.00,,,0.00,,2013-06-11 06:52:00,
2013-06-11 03:02:00,81.0,76.0,30.05,SE,145,0.0,2.0,86,0.00,,,0.00,,2013-06-11 07:02:00,
2013-06-11 03:13:00,80.0,75.0,30.04,SE,129,0.0,1.0,86,0.00,,,0.00,,2013-06-11 07:13:00,
2013-06-11 03:22:00,80.0,75.0,30.04,SE,129,0.0,1.0,86,0.00,,,0.00,,2013-06-11 07:22:00,
2013-06-11 03:32:00,80.0,76.0,30.03,ESE,111,0.0,1.0,87,0.00,,,0.00,,2013-06-11 07:32:00,
2013-06-11 03:42:00,80.0,76.0,30.03,ESE,107,0.0,3.0,89,0.00,,,0.00,,2013-06-11 07:42:00,
2013-06-11 03:52:00,80.0,76.0,30.03,ESE,107,0.0,3.0,89,0.00,,,0.00,,2013-06-11 07:52:00,
2013-06-11 04:02:00,80.0,76.0,30.04,East,92,1.0,3.0,89,0.00,,,0.00,,2013-06-11 08:02:00,
2013-06-11 04:12:00,80.0,76.0,30.04,East,92,1.0,3.0,89,0.00,,,0.00,,2013-06-11 08:12:00,
2013-06-11 04:22:00,80.0,76.0,30.04,ESE,110,0.0,2.0,89,0.00,,,0.00,,2013-06-11 08:22:00,
2013-06-11 04:32:00,80.0,77.0,30.04,East,86,0.0,1.0,90,0.00,,,0.00,,2013-06-11 08:32:00,
2013-06-11 04:42:00,80.0,77.0,30.04,East,97,0.0,3.0,90,0.00,,,0.00,,2013-06-11 08:42:00,
2013-06-11 04:52:00,80.0,77.0,30.04,East,97,0.0,3.0,90,0.00,,,0.00,,2013-06-11 08:52:00,
2013-06-11 05:02:00,79.0,76.0,30.04,ESE,105,0.0,2.0,90,0.00,,,0.00,,2013-06-11 09:02:00,
2013-06-11 05:12:00,79.0,76.0,30.04,ESE,105,0.0,2.0,90,0.00,,,0.00,,2013-06-11 09:12:00,
2013-06-11 05:22:00,79.0,76.0,30.03,ESE,108,0.0,1.0,91,0.00,,,0.00,,2013-06-11 09:22:00,
2013-06-11 05:33:00,79.0,76.0,30.03,ESE,106,0.0,1.0,92,0.00,,,0.00,,2013-06-11 09:33:00,
2013-06-11 05:43:00,79.0,76.0,30.04,ESE,115,0.0,0.0,92,0.00,,,0.00,,2013-06-11 09:43:00,
2013-06-11 05:53:00,79.0,76.0,30.04,ESE,115,0.0,0.0,92,0.00,,,0.00,,2013-06-11 09:53:00,
2013-06-11 06:03:00,79.0,76.0,30.04,ESE,116,0.0,0.0,92,0.00,,,0.00,,2013-06-11 10:03:00,
2013-06-11 06:12:00,79.0,76.0,30.04,ESE,116,0.0,0.0,92,0.00,,,0.00,,2013-06-11 10:12:00,
2013-06-11 06:23:00,78.0,76.0,30.05,ESE,116,0.0,0.0,93,0.00,,,0.00,,2013-06-11 10:23:00,
2013-06-11 06:33:00,78.0,75.0,30.05,ESE,115,0.0,0.0,92,0.00,,,0.00,,2013-06-11 10:33:00,
2013-06-11 06:42:00,78.0,75.0,30.05,ESE,115,0.0,0.0,92,0.00,,,0.00,,2013-06-11 10:42:00,
2013-06-11 06:52:00,78.0,75.0,30.05,ESE,115,0.0,0.0,92,0.00,,,0.00,,2013-06-11 10:52:00,
2013-06-11 07:02:00,78.0,76.0,30.05,ESE,114,0.0,0.0,93,0.00,,,0.00,,2013-06-11 11:02:00,
2013-06-11 07:12:00,78.0,76.0,30.06,ESE,115,0.0,0.0,93,0.00,,,0.00,,2013-06-11 11:12:00,
2013-06-11 07:22:00,78.0,76.0,30.06,ESE,115,0.0,0.0,93,0.00,,,0.00,,2013-06-11 11:22:00,
2013-06-11 07:32:00,79.0,77.0,30.06,ESE,114,0.0,0.0,93,0.00,,,0.00,,2013-06-11 11:32:00,
2013-06-11 07:42:00,79.0,77.0,30.06,ESE,114,0.0,0.0,93,0.00,,,0.00,,2013-06-11 11:42:00,
2013-06-11 07:52:00,79.0,77.0,30.06,ESE,113,0.0,0.0,93,0.00,,,0.00,,2013-06-11 11:52:00,
2013-06-11 08:02:00,83.0,79.0,30.07,ESE,113,0.0,0.0,89,0.00,,,0.00,,2013-06-11 12:02:00,
2013-06-11 08:12:00,84.0,78.0,30.07,ESE,104,0.0,4.0,83,0.00,,,0.00,,2013-06-11 12:12:00,
2013-06-11 08:22:00,84.0,78.0,30.07,ESE,104,0.0,4.0,83,0.00,,,0.00,,2013-06-11 12:22:00,
2013-06-11 08:32:00,84.0,79.0,30.08,SSE,165,0.0,1.0,84,0.00,,,0.00,,2013-06-11 12:32:00,
2013-06-11 08:42:00,85.0,79.0,30.08,SSW,211,0.0,3.0,82,0.00,,,0.00,,2013-06-11 12:42:00,
2013-06-11 08:52:00,85.0,79.0,30.08,SSW,211,0.0,3.0,82,0.00,,,0.00,,2013-06-11 12:52:00,
2013-06-11 09:02:00,86.0,79.0,30.09,ESE,119,0.0,4.0,80,0.00,,,0.00,,2013-06-11 13:02:00,
2013-06-11 09:12:00,86.0,79.0,30.09,ESE,119,0.0,4.0,80,0.00,,,0.00,,2013-06-11 13:12:00,
2013-06-11 09:22:00,87.0,79.0,30.09,SE,134,0.0,5.0,77,0.00,,,0.00,,2013-06-11 13:22:00,
2013-06-11 09:32:00,85.0,78.0,30.08,SSE,156,2.0,6.0,80,0.00,,,0.00,,2013-06-11 13:32:00,
2013-06-11 09:42:00,85.0,78.0,30.08,SSE,156,2.0,6.0,80,0.00,,,0.00,,2013-06-11 13:42:00,
2013-06-11 09:52:00,86.0,79.0,30.09,East,84,1.0,4.0,80,0.00,,,0.00,,2013-06-11 13:52:00,
2013-06-11 10:02:00,86.0,78.0,30.09,SE,142,3.0,9.0,78,0.00,,,0.00,,2013-06-11 14:02:00,
2013-06-11 10:12:00,86.0,78.0,30.09,SE,142,3.0,9.0,78,0.00,,,0.00,,2013-06-11 14:12:00,
2013-06-11 10:22:00,87.0,78.0,30.09,East,79,3.0,10.0,75,0.00,,,0.00,,2013-06-11 14:22:00,
2013-06-11 10:32:00,87.0,78.0,30.10,ESE,118,4.0,11.0,75,0.00,,,0.00,,2013-06-11 14:32:00,
2013-06-11 10:42:00,85.0,78.0,30.10,NNE,27,3.0,13.0,79,0.00,,,0.00,,2013-06-11 14:42:00,
2013-06-11 10:53:00,85.0,78.0,30.10,NNE,27,3.0,13.0,79,0.00,,,0.00,,2013-06-11 14:53:00,
2013-06-11 11:02:00,84.0,77.0,30.10,South,183,1.0,8.0,80,0.00,,,0.00,,2013-06-11 15:02:00,
2013-06-11 11:12:00,84.0,76.0,30.09,SW,217,1.0,5.0,78,0.00,,,0.00,,2013-06-11 15:12:00,
2013-06-11 11:22:00,84.0,76.0,30.09,SW,217,1.0,5.0,78,0.00,,,0.00,,2013-06-11 15:22:00,
2013-06-11 11:33:00,85.0,77.0,30.11,SW,230,0.0,2.0,78,0.00,,,0.00,,2013-06-11 15:33:00,
2013-06-11 11:43:00,85.0,77.0,30.11,East,81,1.0,4.0,76,0.00,,,0.00,,2013-06-11 15:43:00,
2013-06-11 11:53:00,85.0,77.0,30.11,East,81,1.0,4.0,76,0.00,,,0.00,,2013-06-11 15:53:00,
2013-06-11 12:03:00,85.0,77.0,30.10,South,191,0.0,1.0,76,0.00,,,0.00,,2013-06-11 16:03:00,
2013-06-11 12:12:00,85.0,77.0,30.10,South,191,0.0,1.0,76,0.00,,,0.00,,2013-06-11 16:12:00,
2013-06-11 12:22:00,84.0,76.0,30.09,SE,129,1.0,5.0,76,0.00,,,0.00,,2013-06-11 16:22:00,
2013-06-11 12:33:00,84.0,75.0,30.09,South,174,1.0,4.0,75,0.00,,,0.00,,2013-06-11 16:33:00,
2013-06-11 12:42:00,84.0,75.0,30.10,ESE,108,0.0,2.0,74,0.00,,,0.00,,2013-06-11 16:42:00,
2013-06-11 12:53:00,84.0,75.0,30.10,ESE,108,0.0,2.0,74,0.00,,,0.00,,2013-06-11 16:53:00,
2013-06-11 13:02:00,84.0,76.0,30.09,ESE,118,0.0,2.0,76,0.00,,,0.00,,2013-06-11 17:02:00,
2013-06-11 13:12:00,84.0,76.0,30.09,ESE,118,0.0,2.0,76,0.00,,,0.00,,2013-06-11 17:12:00,
2013-06-11 13:22:00,84.0,74.0,30.09,ESE,102,1.0,3.0,73,0.00,,,0.00,,2013-06-11 17:22:00,
2013-06-11 13:32:00,85.0,75.0,30.08,East,87,1.0,4.0,72,0.00,,,0.00,,2013-06-11 17:32:00,
2013-06-11 13:43:00,85.0,75.0,30.08,ESE,102,2.0,5.0,71,0.00,,,0.00,,2013-06-11 17:43:00,
2013-06-11 13:52:00,85.0,75.0,30.08,ESE,102,2.0,5.0,71,0.00,,,0.00,,2013-06-11 17:52:00,
2013-06-11 14:02:00,86.0,75.0,30.08,ESE,114,1.0,4.0,69,0.00,,,0.00,,2013-06-11 18:02:00,
2013-06-11 14:12:00,86.0,75.0,30.08,ESE,114,1.0,4.0,69,0.00,,,0.00,,2013-06-11 18:12:00,
2013-06-11 14:22:00,86.0,76.0,30.07,ESE,115,2.0,6.0,73,0.00,,,0.00,,2013-06-11 18:22:00,
2013-06-11 14:32:00,87.0,77.0,30.07,SW,215,2.0,6.0,73,0.00,,,0.00,,2013-06-11 18:32:00,
2013-06-11 14:43:00,88.0,78.0,30.06,NW,311,2.0,5.0,72,0.00,,,0.00,,2013-06-11 18:43:00,
2013-06-11 14:52:00,88.0,78.0,30.06,NW,311,2.0,5.0,72,0.00,,,0.00,,2013-06-11 18:52:00,
2013-06-11 15:02:00,89.0,78.0,30.06,East,98,1.0,5.0,71,0.00,,,0.00,,2013-06-11 19:02:00,
2013-06-11 15:12:00,89.0,78.0,30.06,East,98,1.0,5.0,71,0.00,,,0.00,,2013-06-11 19:12:00,
2013-06-11 15:22:00,89.0,78.0,30.05,SE,125,1.0,4.0,70,0.00,,,0.00,,2013-06-11 19:22:00,
2013-06-11 15:33:00,88.0,77.0,30.05,South,176,1.0,8.0,70,0.00,,,0.00,,2013-06-11 19:33:00,
2013-06-11 15:42:00,88.0,77.0,30.05,East,100,1.0,6.0,71,0.00,,,0.00,,2013-06-11 19:42:00,
2013-06-11 15:53:00,88.0,77.0,30.05,East,100,1.0,6.0,71,0.00,,,0.00,,2013-06-11 19:53:00,
2013-06-11 16:03:00,88.0,78.0,30.05,East,82,0.0,5.0,73,0.00,,,0.00,,2013-06-11 20:03:00,
2013-06-11 16:12:00,88.0,78.0,30.05,East,82,0.0,5.0,73,0.00,,,0.00,,2013-06-11 20:12:00,
2013-06-11 16:22:00,88.0,77.0,30.04,ESE,105,1.0,7.0,71,0.00,,,0.00,,2013-06-11 20:22:00,
2013-06-11 16:32:00,88.0,77.0,30.04,NNE,32,3.0,8.0,70,0.00,,,0.00,,2013-06-11 20:32:00,
2013-06-11 16:42:00,88.0,77.0,30.04,NNE,32,3.0,8.0,70,0.00,,,0.00,,2013-06-11 20:42:00,
2013-06-11 16:52:00,89.0,78.0,30.03,SSE,152,0.0,3.0,71,0.00,,,0.00,,2013-06-11 20:52:00,
2013-06-11 17:02:00,90.0,78.0,30.03,East,96,1.0,5.0,69,0.00,,,0.00,,2013-06-11 21:02:00,
2013-06-11 17:12:00,90.0,78.0,30.03,East,96,1.0,5.0,69,0.00,,,0.00,,2013-06-11 21:12:00,
2013-06-11 17:22:00,89.0,77.0,30.03,ENE,69,3.0,5.0,69,0.00,,,0.00,,2013-06-11 21:22:00,
2013-06-11 17:33:00,87.0,77.0,30.03,East,82,2.0,5.0,72,0.00,,,0.00,,2013-06-11 21:33:00,
2013-06-11 17:42:00,87.0,77.0,30.03,East,82,2.0,5.0,72,0.00,,,0.00,,2013-06-11 21:42:00,
2013-06-11 17:53:00,86.0,76.0,30.03,NE,45,3.0,5.0,73,0.00,,,0.00,,2013-06-11 21:53:00,
2013-06-11 18:03:00,86.0,77.0,30.02,East,86,3.0,6.0,74,0.00,,,0.00,,2013-06-11 22:03:00,
2013-06-11 18:12:00,86.0,77.0,30.02,East,86,3.0,6.0,74,0.00,,,0.00,,2013-06-11 22:12:00,
2013-06-11 18:22:00,86.0,77.0,30.04,East,94,0.0,5.0,75,0.00,,,0.00,,2013-06-11 22:22:00,
2013-06-11 18:33:00,85.0,76.0,30.04,SE,129,3.0,6.0,75,0.00,,,0.00,,2013-06-11 22:33:00,
2013-06-11 18:42:00,85.0,76.0,30.04,SE,129,3.0,6.0,75,0.00,,,0.00,,2013-06-11 22:42:00,
2013-06-11 18:52:00,85.0,77.0,30.05,ESE,106,2.0,8.0,77,0.00,,,0.00,,2013-06-11 22:52:00,
2013-06-11 19:02:00,84.0,77.0,30.05,East,97,1.0,6.0,79,0.00,,,0.00,,2013-06-11 23:02:00,
2013-06-11 19:12:00,84.0,77.0,30.06,East,88,1.0,4.0,79,0.00,,,0.00,,2013-06-11 23:12:00,
2013-06-11 19:22:00,84.0,77.0,30.06,East,88,1.0,4.0,79,0.00,,,0.00,,2013-06-11 23:22:00,
2013-06-11 19:32:00,84.0,77.0,30.06,East,82,0.0,3.0,80,0.00,,,0.00,,2013-06-11 23:32:00,
2013-06-11 19:42:00,83.0,77.0,30.06,ENE,57,0.0,4.0,82,0.00,,,0.00,,2013-06-11 23:42:00,
2013-06-11 19:52:00,83.0,77.0,30.06,ENE,57,0.0,4.0,82,0.00,,,0.00,,2013-06-11 23:52:00,
2013-06-11 20:02:00,83.0,77.0,30.06,East,92,0.0,4.0,82,0.00,,,0.00,,2013-06-12 00:02:00,
2013-06-11 20:12:00,83.0,77.0,30.06,East,80,1.0,4.0,83,0.00,,,0.00,,2013-06-12 00:12:00,
2013-06-11 20:22:00,83.0,77.0,30.06,East,80,1.0,4.0,83,0.00,,,0.00,,2013-06-12 00:22:00,
2013-06-11 20:32:00,83.0,78.0,30.06,East,94,0.0,4.0,84,0.00,,,0.00,,2013-06-12 00:32:00,
2013-06-11 20:42:00,83.0,78.0,30.06,East,94,0.0,4.0,84,0.00,,,0.00,,2013-06-12 00:42:00,
2013-06-11 20:52:00,83.0,78.0,30.05,East,89,2.0,4.0,85,0.00,,,0.00,,2013-06-12 00:52:00,
2013-06-11 21:02:00,82.0,77.0,30.05,East,88,1.0,6.0,85,0.00,,,0.00,,2013-06-12 01:02:00,
2013-06-11 21:12:00,82.0,77.0,30.05,East,88,1.0,6.0,85,0.00,,,0.00,,2013-06-12 01:12:00,
2013-06-11 21:22:00,82.0,77.0,30.05,ESE,121,1.0,4.0,86,0.00,,,0.00,,2013-06-12 01:22:00,
2013-06-11 21:32:00,82.0,77.0,30.06,SE,127,1.0,5.0,85,0.00,,,0.00,,2013-06-12 01:32:00,
2013-06-11 21:42:00,82.0,77.0,30.06,SE,127,1.0,5.0,85,0.00,,,0.00,,2013-06-12 01:42:00,
2013-06-11 21:52:00,82.0,77.0,30.06,ESE,112,1.0,4.0,86,0.00,,,0.00,,2013-06-12 01:52:00,
2013-06-11 22:02:00,82.0,77.0,30.06,South,188,1.0,3.0,85,0.00,,,0.00,,2013-06-12 02:02:00,
2013-06-11 22:12:00,82.0,77.0,30.06,South,188,1.0,3.0,85,0.00,,,0.00,,2013-06-12 02:12:00,
2013-06-11 22:22:00,82.0,77.0,30.06,East,96,0.0,4.0,85,0.00,,,0.00,,2013-06-12 02:22:00,
2013-06-11 22:32:00,82.0,77.0,30.06,SSE,162,0.0,3.0,86,0.00,,,0.00,,2013-06-12 02:32:00,
2013-06-11 22:42:00,82.0,77.0,30.06,SSW,210,0.0,2.0,86,0.00,,,0.00,,2013-06-12 02:42:00,
2013-06-11 22:52:00,82.0,77.0,30.06,SSW,210,0.0,2.0,86,0.00,,,0.00,,2013-06-12 02:52:00,
2013-06-11 23:02:00,82.0,77.0,30.06,East,98,0.0,0.0,86,0.00,,,0.00,,2013-06-12 03:02:00,
2013-06-11 23:12:00,82.0,77.0,30.05,East,86,2.0,4.0,86,0.00,,,0.00,,2013-06-12 03:12:00,
2013-06-11 23:22:00,82.0,77.0,30.05,East,86,2.0,4.0,86,0.00,,,0.00,,2013-06-12 03:22:00,
2013-06-11 23:33:00,82.0,77.0,30.05,East,91,3.0,5.0,86,0.00,,,0.00,,2013-06-12 03:33:00,
2013-06-11 23:43:00,82.0,77.0,30.05,East,91,3.0,5.0,86,0.00,,,0.00,,2013-06-12 03:43:00,
2013-06-11 23:53:00,82.0,77.0,30.05,East,91,3.0,5.0,86,0.00,,,0.00,,2013-06-12 03:53:00,